M I D A S
Marine Information and Data Acquisition System
Tripno 1848 of the Zeeleeuw from 2010-03-24 07:33:29 to 2010-03-24 13:09:19
Back to CruiseResearch ActivitiesStationsMapUnderway DataData graphs

EquipmentUnitsComments
TimeDGPSUTC
LatitudeDGPSDM.mWGS84
LongitudeDGPSDM.mWGS84
SpeedMeteo Stationm/sRelative wind speed
DirectionMeteo StationdegRelative wind direction
TemperatureMeteo Stationdeg CelciusAir temperature
PressureMeteo StationPaAtmospheric pressure
HumidityMeteo Station%Relative humidity
Missing or incorrect values are displayed as -999
Metereological data collected by the RV Zeeleeuw from 2010-03-24 07:34:48 to 2010-03-24 13:20:32
                                                                                    Next 1000 lines
Time Latitude Longitude Speed Direction Temperature Pressure Humidity
2010-03-24 07:34:58 51°13.661 2°55.962 2.5 340 10.1 100850 41
2010-03-24 07:35:03 51°13.662 2°55.962 1.5 287 10.1 100850 41
2010-03-24 07:35:08 51°13.661 2°55.962 2.2 347 10.1 100850 38
2010-03-24 07:35:13 51°13.661 2°55.962 2.1 287 10.1 100850 38
2010-03-24 07:35:18 51°13.662 2°55.962 2.9 334 10.1 100850 40
2010-03-24 07:35:23 51°13.662 2°55.962 2.9 285 10.1 100850 40
2010-03-24 07:35:28 51°13.662 2°55.962 2.6 337 10.1 100850 40
2010-03-24 07:35:33 51°13.662 2°55.962 3.1 285 10.1 100850 40
2010-03-24 07:35:38 51°13.662 2°55.962 2.2 341 10.1 100850 38
2010-03-24 07:35:43 51°13.662 2°55.962 3.4 280 10.1 100850 38
2010-03-24 07:35:48 51°13.662 2°55.962 3.4 339 10.1 100850 39
2010-03-24 07:35:53 51°13.662 2°55.962 4.1 278 10.1 100850 39
2010-03-24 07:35:58 51°13.662 2°55.962 2.6 338 10.1 100850 40
2010-03-24 07:36:03 51°13.662 2°55.962 2.4 285 10.1 100850 40
2010-03-24 07:36:08 51°13.662 2°55.962 3.3 342 10.1 100850 40
2010-03-24 07:36:13 51°13.662 2°55.962 2.1 284 10.1 100850 40
2010-03-24 07:36:18 51°13.662 2°55.962 2.7 338 10.1 100850 40
2010-03-24 07:36:23 51°13.662 2°55.962 1.6 277 10.1 100850 40
2010-03-24 07:36:28 51°13.662 2°55.962 3.7 338 10.1 100850 40
2010-03-24 07:36:33 51°13.662 2°55.962 2.9 278 10.1 100850 40
2010-03-24 07:36:38 51°13.662 2°55.962 2.8 333 10.1 100850 39
2010-03-24 07:36:43 51°13.662 2°55.962 3.4 284 10.1 100850 39
2010-03-24 07:36:48 51°13.662 2°55.962 3.6 348 10.1 100850 39
2010-03-24 07:36:53 51°13.662 2°55.962 3.8 281 10.1 100850 39
2010-03-24 07:36:58 51°13.662 2°55.962 3.1 335 10.1 100850 38
2010-03-24 07:37:03 51°13.662 2°55.962 2.5 285 10.1 100850 38
2010-03-24 07:37:08 51°13.662 2°55.962 2.7 338 10.1 100850 39
2010-03-24 07:37:13 51°13.661 2°55.962 4 285 10.1 100850 39
2010-03-24 07:37:18 51°13.661 2°55.962 3.6 343 10.1 100850 39
2010-03-24 07:37:23 51°13.661 2°55.962 2.6 351 10.1 100850 39
2010-03-24 07:37:28 51°13.661 2°55.962 2.7 347 10.1 100850 39
2010-03-24 07:37:33 51°13.661 2°55.961 3.2 280 10.1 100850 39
2010-03-24 07:37:38 51°13.661 2°55.96 2.2 347 10.1 100850 39
2010-03-24 07:37:43 51°13.662 2°55.958 2.1 349 10.1 100850 39
2010-03-24 07:37:48 51°13.662 2°55.956 0.9 355 10.1 100850 37
2010-03-24 07:37:53 51°13.663 2°55.953 1.8 283 10.1 100850 37
2010-03-24 07:37:58 51°13.664 2°55.95 0.2 347 10.1 100850 40
2010-03-24 07:38:03 51°13.665 2°55.946 1.5 356 10.1 100850 40
2010-03-24 07:38:09 51°13.666 2°55.941 0.9 343 10.1 100850 39
2010-03-24 07:38:14 51°13.668 2°55.937 2 348 10.1 100850 39
2010-03-24 07:38:20 51°13.669 2°55.931 0.2 352 10.1 100850 39
2010-03-24 07:38:26 51°13.671 2°55.925 2.5 277 10.1 100850 39
2010-03-24 07:38:32 51°13.673 2°55.918 1.7 345 10.1 100850 39
2010-03-24 07:38:37 51°13.674 2°55.912 1.6 353 10.1 100850 39
2010-03-24 07:38:41 51°13.675 2°55.907 0.2 357 10.1 100850 39
2010-03-24 07:38:47 51°13.677 2°55.899 0.8 3 10.1 100850 39
2010-03-24 07:38:52 51°13.678 2°55.892 0.3 360 10.1 100850 40
2010-03-24 07:38:57 51°13.68 2°55.884 0.1 5 10.1 100850 40
2010-03-24 07:39:01 51°13.681 2°55.879 0.8 2 10.1 100850 39
2010-03-24 07:39:07 51°13.682 2°55.87 0.9 9 10.1 100850 39
2010-03-24 07:39:12 51°13.683 2°55.862 0.2 8 10.1 100850 39
2010-03-24 07:39:17 51°13.685 2°55.854 0.1 6 10.1 100850 39
2010-03-24 07:39:21 51°13.686 2°55.847 1.1 355 10.1 100850 40
2010-03-24 07:39:27 51°13.687 2°55.836 0.2 349 10.1 100850 40
2010-03-24 07:39:32 51°13.689 2°55.827 0.3 28 10.1 100850 39
2010-03-24 07:39:37 51°13.69 2°55.816 0.1 15 10.1 100850 39
2010-03-24 07:39:41 51°13.691 2°55.808 1 24 10.1 100850 40
2010-03-24 07:39:47 51°13.693 2°55.797 0.4 7 10.1 100850 40
2010-03-24 07:39:52 51°13.694 2°55.788 0.1 354 10.1 100850 39
2010-03-24 07:39:57 51°13.695 2°55.779 0.1 15 10.1 100850 39
2010-03-24 07:40:01 51°13.695 2°55.772 0.1 38 10.1 100840 40
2010-03-24 07:40:06 51°13.695 2°55.764 -999 33 10.1 100840 40
2010-03-24 07:40:11 51°13.696 2°55.756 0.1 19 10.1 100840 40
2010-03-24 07:40:16 51°13.696 2°55.749 0.2 26 10.1 100840 40
2010-03-24 07:40:21 51°13.697 2°55.743 0.4 16 10.1 100850 39
2010-03-24 07:40:26 51°13.697 2°55.738 0.4 11 10.1 100850 39
2010-03-24 07:40:31 51°13.698 2°55.735 0.3 12 10.1 100850 39
2010-03-24 07:40:36 51°13.698 2°55.734 1.9 11 10.1 100850 39
2010-03-24 07:40:41 51°13.699 2°55.735 2.3 2 10.1 100850 40
2010-03-24 07:40:46 51°13.7 2°55.737 2 3 10.1 100850 40
2010-03-24 07:40:50 51°13.702 2°55.74 3 18 10.1 100850 39
2010-03-24 07:40:55 51°13.704 2°55.742 2.8 18 10.1 100850 39
2010-03-24 07:41:00 51°13.706 2°55.745 3.3 32 10.1 100840 41
2010-03-24 07:41:05 51°13.708 2°55.748 2 27 10.1 100840 41
2010-03-24 07:41:10 51°13.71 2°55.75 2.8 12 10.1 100840 40
2010-03-24 07:41:15 51°13.713 2°55.752 3.1 20 10.1 100840 40
2010-03-24 07:41:20 51°13.715 2°55.753 2.7 18 10.1 100840 39
2010-03-24 07:41:25 51°13.717 2°55.754 2.5 23 10.1 100840 39
2010-03-24 07:41:29 51°13.717 2°55.754 2.3 29 10.1 100840 39
2010-03-24 07:41:34 51°13.718 2°55.754 2.7 31 10.1 100840 39
2010-03-24 07:41:39 51°13.717 2°55.754 4.2 41 10.1 100840 39
2010-03-24 07:41:44 51°13.716 2°55.754 2.9 36 10.1 100840 39
2010-03-24 07:41:49 51°13.715 2°55.753 2.7 40 10 100840 41
2010-03-24 07:41:54 51°13.713 2°55.752 2.6 37 10 100840 41
2010-03-24 07:41:59 51°13.712 2°55.752 2.6 43 10 100850 39
2010-03-24 07:42:05 51°13.711 2°55.751 0.6 44 10 100850 39
2010-03-24 07:42:10 51°13.711 2°55.751 1.6 20 10.1 100850 40
2010-03-24 07:42:16 51°13.713 2°55.751 1.6 36 10.1 100850 40
2010-03-24 07:42:21 51°13.715 2°55.75 1.5 35 10.1 100850 39
2010-03-24 07:42:27 51°13.718 2°55.749 0.3 44 10.1 100850 39
2010-03-24 07:42:32 51°13.721 2°55.747 0.2 40 10 100850 40
2010-03-24 07:42:37 51°13.725 2°55.744 0.1 78 10 100850 40
2010-03-24 07:42:41 51°13.729 2°55.741 0.1 23 10 100850 40
2010-03-24 07:42:46 51°13.734 2°55.737 -999 78 10 100850 40
2010-03-24 07:42:51 51°13.739 2°55.731 -999 37 10 100840 40
2010-03-24 07:42:56 51°13.745 2°55.725 -999 31 10 100840 40
2010-03-24 07:43:01 51°13.751 2°55.718 -999 357 10.1 100850 40
2010-03-24 07:43:05 51°13.756 2°55.712 -999 43 10.1 100850 40
2010-03-24 07:43:10 51°13.763 2°55.706 -999 44 10 100840 39
2010-03-24 07:43:15 51°13.77 2°55.698 -999 39 10 100840 39
2010-03-24 07:43:20 51°13.778 2°55.691 -999 33 10.1 100840 40
2010-03-24 07:43:25 51°13.785 2°55.683 -999 40 10.1 100840 40
2010-03-24 07:43:30 51°13.793 2°55.676 -999 32 10.1 100840 40
2010-03-24 07:43:35 51°13.801 2°55.668 -999 33 10.1 100840 40
2010-03-24 07:43:39 51°13.808 2°55.662 -999 33 10.1 100840 40
2010-03-24 07:43:45 51°13.819 2°55.653 -999 24 10.1 100840 40
2010-03-24 07:43:49 51°13.826 2°55.647 -999 32 10.1 100840 40
2010-03-24 07:43:54 51°13.834 2°55.638 -999 32 10.1 100840 40
2010-03-24 07:43:59 51°13.843 2°55.631 -999 33 10.1 100840 40
2010-03-24 07:44:04 51°13.853 2°55.624 -999 32 10.1 100840 40
2010-03-24 07:44:09 51°13.862 2°55.617 -999 29 10.1 100840 40
2010-03-24 07:44:13 51°13.87 2°55.611 -999 36 10.1 100840 40
2010-03-24 07:44:18 51°13.88 2°55.603 -999 30 10.1 100840 40
2010-03-24 07:44:23 51°13.89 2°55.596 -999 32 10.1 100840 40
2010-03-24 07:44:28 51°13.9 2°55.588 -999 21 10.1 100840 40
2010-03-24 07:44:33 51°13.911 2°55.58 -999 19 10.1 100840 40
2010-03-24 07:44:38 51°13.921 2°55.572 -999 21 10.1 100840 40
2010-03-24 07:44:43 51°13.932 2°55.564 -999 21 10.1 100840 40
2010-03-24 07:44:48 51°13.943 2°55.555 -999 36 10.1 100840 40
2010-03-24 07:44:53 51°13.954 2°55.548 -999 13 10.1 100840 40
2010-03-24 07:44:58 51°13.965 2°55.539 -999 39 10.1 100840 40
2010-03-24 07:45:03 51°13.976 2°55.532 -999 358 10.1 100840 40
2010-03-24 07:45:08 51°13.988 2°55.523 -999 10 10.1 100840 40
2010-03-24 07:45:13 51°13.999 2°55.516 -999 3 10.1 100840 40
2010-03-24 07:45:18 51°14.01 2°55.508 -999 9 10.1 100840 40
2010-03-24 07:45:23 51°14.022 2°55.501 -999 34 10.1 100840 40
2010-03-24 07:45:28 51°14.033 2°55.493 -999 30 10.1 100840 40
2010-03-24 07:45:33 51°14.044 2°55.485 -999 33 10.1 100840 40
2010-03-24 07:45:38 51°14.056 2°55.478 -999 41 10.1 100840 40
2010-03-24 07:45:43 51°14.067 2°55.47 -999 44 10.1 100840 40
2010-03-24 07:45:48 51°14.078 2°55.461 -999 35 10.1 100840 39
2010-03-24 07:45:53 51°14.089 2°55.452 -999 34 10.1 100840 39
2010-03-24 07:45:58 51°14.1 2°55.444 -999 36 10.1 100840 40
2010-03-24 07:46:03 51°14.111 2°55.436 -999 30 10.1 100840 40
2010-03-24 07:46:08 51°14.122 2°55.428 -999 38 10.1 100830 40
2010-03-24 07:46:13 51°14.134 2°55.421 -999 28 10.1 100830 40
2010-03-24 07:46:18 51°14.145 2°55.413 -999 35 10.1 100830 40
2010-03-24 07:46:23 51°14.156 2°55.405 -999 38 10.1 100830 40
2010-03-24 07:46:28 51°14.167 2°55.396 0.1 20 10.1 100830 40
2010-03-24 07:46:33 51°14.178 2°55.387 0.1 78 10.1 100830 40
2010-03-24 07:46:38 51°14.19 2°55.377 0.1 24 10.1 100830 40
2010-03-24 07:46:43 51°14.201 2°55.368 -999 78 10.1 100830 40
2010-03-24 07:46:48 51°14.212 2°55.357 -999 40 10.1 100830 39
2010-03-24 07:46:53 51°14.224 2°55.346 -999 40 10.1 100830 39
2010-03-24 07:46:58 51°14.236 2°55.334 -999 40 10.1 100840 40
2010-03-24 07:47:03 51°14.248 2°55.321 -999 40 10.1 100840 40
2010-03-24 07:47:08 51°14.26 2°55.309 -999 253 10.1 100830 39
2010-03-24 07:47:13 51°14.273 2°55.297 -999 282 10.1 100830 39
2010-03-24 07:47:18 51°14.286 2°55.285 -999 23 10.2 100830 40
2010-03-24 07:47:23 51°14.298 2°55.272 -999 282 10.2 100830 40
2010-03-24 07:47:28 51°14.311 2°55.258 -999 23 10.2 100830 39
2010-03-24 07:47:33 51°14.324 2°55.245 -999 282 10.2 100830 39
2010-03-24 07:47:38 51°14.337 2°55.232 -999 251 10.2 100830 40
2010-03-24 07:47:43 51°14.35 2°55.218 -999 283 10.2 100830 40
2010-03-24 07:47:48 51°14.363 2°55.205 -999 265 10.2 100840 40
2010-03-24 07:47:53 51°14.376 2°55.192 -999 282 10.2 100840 40
2010-03-24 07:47:58 51°14.389 2°55.178 -999 26 10.1 100830 40
2010-03-24 07:48:03 51°14.402 2°55.164 -999 282 10.1 100830 40
2010-03-24 07:48:08 51°14.415 2°55.15 -999 248 10.2 100830 40
2010-03-24 07:48:13 51°14.428 2°55.136 -999 282 10.2 100830 40
2010-03-24 07:48:18 51°14.442 2°55.122 -999 23 10.1 100830 39
2010-03-24 07:48:23 51°14.456 2°55.107 -999 282 10.1 100830 39
2010-03-24 07:48:28 51°14.47 2°55.093 -999 249 10.2 100830 39
2010-03-24 07:48:33 51°14.484 2°55.077 -999 282 10.2 100830 39
2010-03-24 07:48:38 51°14.498 2°55.063 -999 23 10.2 100830 40
2010-03-24 07:48:43 51°14.513 2°55.047 -999 282 10.2 100830 40
2010-03-24 07:48:48 51°14.527 2°55.03 -999 28 10.2 100830 40
2010-03-24 07:48:53 51°14.54 2°55.013 -999 78 10.2 100830 40
2010-03-24 07:48:58 51°14.554 2°54.995 -999 265 10.2 100830 40
2010-03-24 07:49:03 51°14.568 2°54.977 -999 282 10.2 100830 40
2010-03-24 07:49:08 51°14.582 2°54.958 -999 256 10.2 100830 40
2010-03-24 07:49:13 51°14.594 2°54.938 -999 282 10.2 100830 40
2010-03-24 07:49:18 51°14.605 2°54.917 0.6 251 10.2 100830 40
2010-03-24 07:49:23 51°14.616 2°54.893 2.2 284 10.2 100830 40
2010-03-24 07:49:28 51°14.625 2°54.869 3 23 10.2 100830 40
2010-03-24 07:49:33 51°14.634 2°54.843 2.7 284 10.2 100830 40
2010-03-24 07:49:38 51°14.642 2°54.817 3.4 22 10.2 100820 41
2010-03-24 07:49:43 51°14.649 2°54.79 3.5 279 10.2 100820 41
2010-03-24 07:49:48 51°14.656 2°54.763 3.7 244 10.3 100830 38
2010-03-24 07:49:53 51°14.661 2°54.735 4.4 305 10.3 100830 38
2010-03-24 07:49:58 51°14.666 2°54.708 4.8 247 10.3 100830 40
2010-03-24 07:50:03 51°14.668 2°54.679 6.3 310 10.3 100830 40
2010-03-24 07:50:08 51°14.669 2°54.651 5.9 26 10.3 100830 39
2010-03-24 07:50:13 51°14.669 2°54.623 6.1 303 10.3 100830 39
2010-03-24 07:50:18 51°14.667 2°54.594 6.3 26 10.3 100830 40
2010-03-24 07:50:23 51°14.663 2°54.567 6.7 303 10.3 100830 40
2010-03-24 07:50:28 51°14.658 2°54.54 7 25 10.3 100820 39
2010-03-24 07:50:33 51°14.651 2°54.514 7.1 303 10.3 100820 39
2010-03-24 07:50:38 51°14.644 2°54.488 7.1 21 10.2 100820 39
2010-03-24 07:50:43 51°14.635 2°54.463 9.1 302 10.2 100820 39
2010-03-24 07:50:48 51°14.626 2°54.439 10 23 10.3 100810 39
2010-03-24 07:50:53 51°14.617 2°54.416 10.1 306 10.3 100810 39
2010-03-24 07:50:58 51°14.606 2°54.393 7.8 22 10.3 100810 40
2010-03-24 07:51:03 51°14.596 2°54.369 8.2 309 10.3 100810 40
2010-03-24 07:51:08 51°14.585 2°54.347 8 22 10.2 100810 38
2010-03-24 07:51:13 51°14.575 2°54.324 7.9 308 10.2 100810 38
2010-03-24 07:51:18 51°14.564 2°54.301 8.3 27 10.2 100790 38
2010-03-24 07:51:23 51°14.554 2°54.278 6.8 310 10.2 100790 38
2010-03-24 07:51:28 51°14.544 2°54.255 7.7 21 10.3 100790 39
2010-03-24 07:51:33 51°14.534 2°54.232 7.6 305 10.3 100790 39
2010-03-24 07:51:38 51°14.524 2°54.209 8.1 22 10.3 100790 39
2010-03-24 07:51:43 51°14.514 2°54.185 8.1 309 10.3 100790 39
2010-03-24 07:51:48 51°14.504 2°54.162 6.9 25 10.3 100810 40
2010-03-24 07:51:53 51°14.494 2°54.138 8.8 308 10.3 100810 40
2010-03-24 07:51:58 51°14.484 2°54.115 7.6 21 10.3 100810 38
2010-03-24 07:52:03 51°14.474 2°54.091 8.1 301 10.3 100810 38
2010-03-24 07:52:08 51°14.465 2°54.068 8.1 22 10.3 100800 39
2010-03-24 07:52:13 51°14.455 2°54.044 9.1 308 10.3 100800 39
2010-03-24 07:52:18 51°14.445 2°54.021 8.8 21 10.3 100810 39
2010-03-24 07:52:23 51°14.435 2°53.997 7.9 304 10.3 100810 39
2010-03-24 07:52:28 51°14.425 2°53.974 7.9 22 10.3 100800 39
2010-03-24 07:52:33 51°14.414 2°53.951 9.6 305 10.3 100800 39
2010-03-24 07:52:38 51°14.404 2°53.928 9.6 20 10.3 100800 39
2010-03-24 07:52:43 51°14.393 2°53.905 9.1 307 10.3 100800 39
2010-03-24 07:52:48 51°14.383 2°53.882 8.2 25 10.3 100810 39
2010-03-24 07:52:53 51°14.372 2°53.859 8.2 302 10.3 100810 39
2010-03-24 07:52:58 51°14.361 2°53.836 9 26 10.3 100810 39
2010-03-24 07:53:03 51°14.351 2°53.813 7.9 303 10.3 100810 39
2010-03-24 07:53:08 51°14.34 2°53.791 8.8 22 10.3 100810 39
2010-03-24 07:53:13 51°14.329 2°53.768 9 307 10.3 100810 39
2010-03-24 07:53:18 51°14.318 2°53.746 8.1 26 10.3 100810 39
2010-03-24 07:53:23 51°14.307 2°53.723 8 308 10.3 100810 39
2010-03-24 07:53:28 51°14.297 2°53.7 7.8 23 10.3 100800 39
2010-03-24 07:53:33 51°14.286 2°53.677 8 310 10.3 100800 39
2010-03-24 07:53:38 51°14.276 2°53.654 8 26 10.2 100810 40
2010-03-24 07:53:43 51°14.265 2°53.631 7.9 308 10.2 100810 40
2010-03-24 07:53:48 51°14.254 2°53.607 9 21 10.2 100810 38
2010-03-24 07:53:53 51°14.243 2°53.584 8.7 309 10.2 100810 38
2010-03-24 07:53:58 51°14.233 2°53.561 8.6 19 10.2 100810 40
2010-03-24 07:54:03 51°14.222 2°53.538 9.3 302 10.2 100810 40
2010-03-24 07:54:08 51°14.211 2°53.514 8.6 24 10.2 100810 39
2010-03-24 07:54:13 51°14.201 2°53.491 7.5 308 10.2 100810 39
2010-03-24 07:54:18 51°14.19 2°53.468 7.4 24 10.2 100800 39
2010-03-24 07:54:23 51°14.179 2°53.445 7.7 301 10.2 100800 39
2010-03-24 07:54:28 51°14.168 2°53.422 7.4 27 10.2 100800 40
2010-03-24 07:54:33 51°14.158 2°53.398 8.5 307 10.2 100800 40
2010-03-24 07:54:38 51°14.147 2°53.375 8.6 26 10.2 100810 39
2010-03-24 07:54:43 51°14.137 2°53.352 8.8 306 10.2 100810 39
2010-03-24 07:54:48 51°14.126 2°53.329 9.4 28 10.2 100810 40
2010-03-24 07:54:53 51°14.115 2°53.306 8.6 309 10.2 100810 40
2010-03-24 07:54:58 51°14.105 2°53.283 9.6 21 10.2 100810 38
2010-03-24 07:55:03 51°14.094 2°53.26 9.1 309 10.2 100810 38
2010-03-24 07:55:08 51°14.083 2°53.237 9.3 25 10.2 100800 38
2010-03-24 07:55:13 51°14.072 2°53.214 9.8 309 10.2 100800 38
2010-03-24 07:55:18 51°14.062 2°53.19 8 20 10.2 100810 40
2010-03-24 07:55:23 51°14.053 2°53.166 8.4 305 10.2 100810 40
2010-03-24 07:55:28 51°14.043 2°53.142 8.4 28 10.2 100810 39
2010-03-24 07:55:33 51°14.034 2°53.117 9.4 310 10.2 100810 39
2010-03-24 07:55:38 51°14.024 2°53.092 8.1 20 10.2 100800 39
2010-03-24 07:55:43 51°14.015 2°53.068 8.3 309 10.2 100800 39
2010-03-24 07:55:48 51°14.006 2°53.043 8.1 21 10.2 100810 39
2010-03-24 07:55:53 51°13.997 2°53.018 8.6 308 10.2 100810 39
2010-03-24 07:55:58 51°13.988 2°52.993 8.1 20 10.2 100810 39
2010-03-24 07:56:03 51°13.979 2°52.968 7.8 305 10.2 100810 39
2010-03-24 07:56:08 51°13.97 2°52.943 8.2 29 10.2 100810 39
2010-03-24 07:56:13 51°13.961 2°52.918 7.6 308 10.2 100810 39
2010-03-24 07:56:18 51°13.952 2°52.894 8.2 22 10.2 100810 38
2010-03-24 07:56:23 51°13.943 2°52.869 8.3 307 10.2 100810 38
2010-03-24 07:56:28 51°13.934 2°52.844 8.1 20 10.2 100810 37
2010-03-24 07:56:33 51°13.925 2°52.819 7.9 309 10.2 100810 37
2010-03-24 07:56:38 51°13.916 2°52.795 8.7 22 10.2 100810 40
2010-03-24 07:56:43 51°13.907 2°52.77 8.3 308 10.2 100810 40
2010-03-24 07:56:48 51°13.898 2°52.745 8.5 21 10.2 100810 39
2010-03-24 07:56:53 51°13.889 2°52.72 8.3 307 10.2 100810 39
2010-03-24 07:56:58 51°13.88 2°52.695 8.5 21 10.2 100810 38
2010-03-24 07:57:03 51°13.871 2°52.67 8.3 303 10.2 100810 38
2010-03-24 07:57:08 51°13.862 2°52.645 8.5 26 10.2 100810 38
2010-03-24 07:57:13 51°13.853 2°52.62 8.6 305 10.2 100810 38
2010-03-24 07:57:18 51°13.844 2°52.595 8.2 26 10.2 100800 40
2010-03-24 07:57:23 51°13.835 2°52.57 8.1 302 10.2 100800 40
2010-03-24 07:57:28 51°13.826 2°52.545 8 22 10.2 100810 38
2010-03-24 07:57:33 51°13.817 2°52.52 7.9 308 10.2 100810 38
2010-03-24 07:57:38 51°13.808 2°52.495 7.7 22 10.2 100810 38
2010-03-24 07:57:43 51°13.799 2°52.471 8.4 308 10.2 100810 38
2010-03-24 07:57:48 51°13.79 2°52.446 8.6 21 10.2 100810 40
2010-03-24 07:57:53 51°13.781 2°52.421 8.6 303 10.2 100810 40
2010-03-24 07:57:58 51°13.772 2°52.396 8 24 10.2 100810 39
2010-03-24 07:58:03 51°13.763 2°52.371 8.7 302 10.2 100810 39
2010-03-24 07:58:08 51°13.754 2°52.346 8.2 20 10.2 100810 39
2010-03-24 07:58:13 51°13.745 2°52.321 8.5 307 10.2 100810 39
2010-03-24 07:58:18 51°13.735 2°52.296 7.8 19 10.2 100810 39
2010-03-24 07:58:23 51°13.726 2°52.271 8.5 304 10.2 100810 39
2010-03-24 07:58:28 51°13.717 2°52.246 8.7 20 10.2 100810 39
2010-03-24 07:58:33 51°13.709 2°52.221 7.8 309 10.2 100810 39
2010-03-24 07:58:38 51°13.699 2°52.196 7.9 19 10.2 100810 39
2010-03-24 07:58:43 51°13.691 2°52.171 7.6 305 10.2 100810 39
2010-03-24 07:58:48 51°13.681 2°52.146 7.8 27 10.2 100810 40
2010-03-24 07:58:53 51°13.672 2°52.121 8.2 304 10.2 100810 40
2010-03-24 07:58:58 51°13.663 2°52.096 8.3 25 10.2 100810 40
2010-03-24 07:59:03 51°13.654 2°52.07 8.4 306 10.2 100810 40
2010-03-24 07:59:08 51°13.645 2°52.045 7.8 26 10.2 100810 39
2010-03-24 07:59:13 51°13.636 2°52.02 7.7 304 10.2 100810 39
2010-03-24 07:59:18 51°13.627 2°51.995 7.8 19 10.2 100810 40
2010-03-24 07:59:23 51°13.618 2°51.97 7.5 309 10.2 100810 40
2010-03-24 07:59:28 51°13.609 2°51.945 7.3 26 10.2 100800 40
2010-03-24 07:59:33 51°13.6 2°51.919 7.7 304 10.2 100800 40
2010-03-24 07:59:38 51°13.591 2°51.894 7.5 19 10.2 100810 39
2010-03-24 07:59:43 51°13.582 2°51.869 8.2 309 10.2 100810 39
2010-03-24 07:59:48 51°13.572 2°51.844 7.8 25 10.2 100810 39
2010-03-24 07:59:53 51°13.563 2°51.819 7.4 301 10.2 100810 39
2010-03-24 07:59:58 51°13.554 2°51.793 7.2 23 10.2 100810 39
2010-03-24 08:00:03 51°13.545 2°51.768 7.5 303 10.2 100810 39
2010-03-24 08:00:08 51°13.536 2°51.743 7.7 22 10.2 100810 39
2010-03-24 08:00:13 51°13.527 2°51.717 8.1 309 10.2 100810 39
2010-03-24 08:00:18 51°13.518 2°51.692 7.9 22 10.2 100810 39
2010-03-24 08:00:23 51°13.509 2°51.667 8.5 308 10.2 100810 39
2010-03-24 08:00:28 51°13.5 2°51.641 8.2 22 10.2 100810 39
2010-03-24 08:00:33 51°13.491 2°51.616 7.8 305 10.2 100810 39
2010-03-24 08:00:38 51°13.482 2°51.591 7.9 20 10.2 100810 39
2010-03-24 08:00:43 51°13.473 2°51.565 7.9 306 10.2 100810 39
2010-03-24 08:00:48 51°13.464 2°51.54 7.3 23 10.2 100810 39
2010-03-24 08:00:53 51°13.455 2°51.515 8 305 10.2 100810 39
2010-03-24 08:00:58 51°13.446 2°51.489 7.6 21 10.2 100810 40
2010-03-24 08:01:03 51°13.437 2°51.464 7.8 309 10.2 100810 40
2010-03-24 08:01:08 51°13.428 2°51.438 7.9 20 10.2 100810 39
2010-03-24 08:01:13 51°13.419 2°51.413 7.5 304 10.2 100810 39
2010-03-24 08:01:18 51°13.41 2°51.388 7.7 22 10.2 100810 39
2010-03-24 08:01:23 51°13.401 2°51.362 7.6 302 10.2 100810 39
2010-03-24 08:01:28 51°13.392 2°51.337 7.6 25 10.2 100810 39
2010-03-24 08:01:33 51°13.383 2°51.311 8 301 10.2 100810 39
2010-03-24 08:01:38 51°13.374 2°51.286 7.2 23 10.2 100810 40
2010-03-24 08:01:43 51°13.365 2°51.26 7.2 308 10.2 100810 40
2010-03-24 08:01:48 51°13.356 2°51.235 7.3 26 10.2 100800 38
2010-03-24 08:01:53 51°13.347 2°51.21 7.7 303 10.2 100800 38
2010-03-24 08:01:58 51°13.338 2°51.184 7.1 22 10.2 100800 40
2010-03-24 08:02:03 51°13.329 2°51.159 7.3 303 10.2 100800 40
2010-03-24 08:02:08 51°13.32 2°51.133 8 19 10.1 100800 39
2010-03-24 08:02:13 51°13.311 2°51.108 7.6 303 10.1 100800 39
2010-03-24 08:02:18 51°13.302 2°51.082 7.6 28 10.1 100810 40
2010-03-24 08:02:23 51°13.293 2°51.057 6.9 306 10.1 100810 40
2010-03-24 08:02:28 51°13.284 2°51.031 7.4 22 10.1 100800 39
2010-03-24 08:02:33 51°13.274 2°51.006 7.5 305 10.1 100800 39
2010-03-24 08:02:38 51°13.266 2°50.98 7.3 23 10.1 100800 39
2010-03-24 08:02:43 51°13.257 2°50.955 7.6 309 10.1 100800 39
2010-03-24 08:02:48 51°13.248 2°50.93 7.6 20 10.1 100800 40
2010-03-24 08:02:53 51°13.239 2°50.904 7.7 308 10.1 100800 40
2010-03-24 08:02:58 51°13.23 2°50.879 7.7 22 10.1 100810 39
2010-03-24 08:03:03 51°13.221 2°50.853 7 302 10.1 100810 39
2010-03-24 08:03:08 51°13.212 2°50.827 6.9 27 10.1 100810 41
2010-03-24 08:03:13 51°13.203 2°50.802 6.8 304 10.1 100810 41
2010-03-24 08:03:18 51°13.194 2°50.776 7.1 25 10.1 100810 39
2010-03-24 08:03:23 51°13.185 2°50.751 7.4 310 10.1 100810 39
2010-03-24 08:03:28 51°13.176 2°50.725 7.1 21 10.1 100800 39
2010-03-24 08:03:33 51°13.167 2°50.7 7.2 303 10.1 100800 39
2010-03-24 08:03:38 51°13.158 2°50.674 6.9 23 10.1 100810 39
2010-03-24 08:03:43 51°13.149 2°50.648 7.7 309 10.1 100810 39
2010-03-24 08:03:48 51°13.14 2°50.623 7.8 26 10.1 100800 39
2010-03-24 08:03:53 51°13.131 2°50.597 7.2 308 10.1 100800 39
2010-03-24 08:03:58 51°13.122 2°50.572 7 28 10.1 100800 39
2010-03-24 08:04:03 51°13.113 2°50.546 7.5 309 10.1 100800 39
2010-03-24 08:04:08 51°13.104 2°50.52 7.4 21 10 100800 40
2010-03-24 08:04:13 51°13.095 2°50.495 7 305 10 100800 40
2010-03-24 08:04:18 51°13.086 2°50.469 7.2 23 10 100800 41
2010-03-24 08:04:23 51°13.078 2°50.444 7.4 302 10 100800 41
2010-03-24 08:04:28 51°13.069 2°50.418 7.2 23 10 100800 38
2010-03-24 08:04:33 51°13.06 2°50.393 6.7 308 10 100800 38
2010-03-24 08:04:38 51°13.051 2°50.367 7.2 21 10 100800 41
2010-03-24 08:04:43 51°13.042 2°50.341 7.3 309 10 100800 41
2010-03-24 08:04:48 51°13.033 2°50.316 7.1 22 10 100800 40
2010-03-24 08:04:53 51°13.025 2°50.29 7.2 306 10 100800 40
2010-03-24 08:04:58 51°13.016 2°50.264 7.1 20 10 100800 40
2010-03-24 08:05:03 51°13.007 2°50.239 6.8 304 10 100800 40
2010-03-24 08:05:08 51°12.998 2°50.213 7.1 20 10 100800 39
2010-03-24 08:05:13 51°12.989 2°50.187 7.1 308 10 100800 39
2010-03-24 08:05:18 51°12.981 2°50.161 7.1 28 10 100800 39
2010-03-24 08:05:23 51°12.972 2°50.136 6.8 307 10 100800 39
2010-03-24 08:05:28 51°12.963 2°50.11 7.1 22 10 100800 40
2010-03-24 08:05:33 51°12.954 2°50.084 7.1 306 10 100800 40
2010-03-24 08:05:38 51°12.946 2°50.058 7.1 28 10 100800 40
2010-03-24 08:05:43 51°12.937 2°50.032 7 310 10 100800 40
2010-03-24 08:05:48 51°12.928 2°50.007 7.4 22 10 100800 39
2010-03-24 08:05:53 51°12.92 2°49.981 7.3 309 10 100800 39
2010-03-24 08:05:57 51°12.913 2°49.96 7.4 26 10 100800 39
2010-03-24 08:06:03 51°12.902 2°49.929 7.4 309 10 100800 39
2010-03-24 08:06:08 51°12.894 2°49.904 7.8 18 10 100800 39
2010-03-24 08:06:13 51°12.885 2°49.878 7.5 307 10 100800 39
2010-03-24 08:06:18 51°12.876 2°49.852 7.3 20 9.9 100800 40
2010-03-24 08:06:23 51°12.868 2°49.826 7.9 304 9.9 100800 40
2010-03-24 08:06:28 51°12.859 2°49.8 7.7 21 10 100800 41
2010-03-24 08:06:33 51°12.85 2°49.775 7.7 301 10 100800 41
2010-03-24 08:06:38 51°12.842 2°49.749 7.3 24 9.9 100800 39
2010-03-24 08:06:43 51°12.833 2°49.723 6.8 310 9.9 100800 39
2010-03-24 08:06:48 51°12.824 2°49.697 7.2 24 9.9 100800 39
2010-03-24 08:06:53 51°12.816 2°49.671 7.1 308 9.9 100800 39
2010-03-24 08:06:58 51°12.807 2°49.645 7 28 9.9 100800 40
2010-03-24 08:07:03 51°12.798 2°49.619 6.6 307 9.9 100800 40
2010-03-24 08:07:08 51°12.79 2°49.593 7.6 21 9.9 100800 39
2010-03-24 08:07:13 51°12.781 2°49.567 8 305 9.9 100800 39
2010-03-24 08:07:18 51°12.773 2°49.541 7.2 18 9.9 100790 40
2010-03-24 08:07:23 51°12.764 2°49.515 7 308 9.9 100790 40
2010-03-24 08:07:28 51°12.756 2°49.489 7.6 18 9.9 100800 41
2010-03-24 08:07:33 51°12.747 2°49.463 7.3 308 9.9 100800 41
2010-03-24 08:07:38 51°12.738 2°49.437 7.8 26 9.9 100800 39
2010-03-24 08:07:43 51°12.73 2°49.411 7.9 307 9.9 100800 39
2010-03-24 08:07:48 51°12.721 2°49.386 8.2 23 9.9 100800 40
2010-03-24 08:07:53 51°12.713 2°49.359 7 308 9.9 100800 40
2010-03-24 08:07:58 51°12.704 2°49.333 7 29 9.9 100790 41
2010-03-24 08:08:03 51°12.696 2°49.307 7.5 310 9.9 100790 41
2010-03-24 08:08:08 51°12.687 2°49.281 7.5 21 9.9 100800 39
2010-03-24 08:08:13 51°12.679 2°49.255 7.9 309 9.9 100800 39
2010-03-24 08:08:18 51°12.67 2°49.229 7.6 21 9.9 100790 39
2010-03-24 08:08:23 51°12.662 2°49.203 7.9 310 9.9 100790 39
2010-03-24 08:08:28 51°12.653 2°49.177 7.4 22 9.9 100800 40
2010-03-24 08:08:33 51°12.645 2°49.151 8.2 304 9.9 100800 40
2010-03-24 08:08:38 51°12.636 2°49.126 9 25 9.9 100790 41
2010-03-24 08:08:43 51°12.627 2°49.099 9.4 306 9.9 100790 41
2010-03-24 08:08:48 51°12.619 2°49.074 8.4 24 9.9 100790 40
2010-03-24 08:08:53 51°12.61 2°49.047 7.5 304 9.9 100790 40
2010-03-24 08:08:58 51°12.602 2°49.021 7.1 19 9.9 100790 41
2010-03-24 08:09:03 51°12.593 2°48.995 7.3 301 9.9 100790 41
2010-03-24 08:09:08 51°12.585 2°48.969 7.4 28 9.9 100790 39
2010-03-24 08:09:13 51°12.576 2°48.943 7.7 308 9.9 100790 39
2010-03-24 08:09:18 51°12.568 2°48.917 7.2 27 9.9 100800 41
2010-03-24 08:09:23 51°12.559 2°48.891 7.6 303 9.9 100800 41
2010-03-24 08:09:28 51°12.551 2°48.864 8.3 28 9.9 100790 39
2010-03-24 08:09:33 51°12.543 2°48.838 8 309 9.9 100790 39
2010-03-24 08:09:38 51°12.534 2°48.812 7.8 21 9.9 100790 39
2010-03-24 08:09:43 51°12.526 2°48.786 7.6 309 9.9 100790 39
2010-03-24 08:09:48 51°12.517 2°48.76 7.9 25 9.8 100790 39
2010-03-24 08:09:53 51°12.509 2°48.733 7.9 309 9.8 100790 39
2010-03-24 08:09:58 51°12.5 2°48.707 7.5 27 9.8 100790 41
2010-03-24 08:10:03 51°12.492 2°48.681 7.7 305 9.8 100790 41
2010-03-24 08:10:08 51°12.483 2°48.655 7.4 21 9.8 100800 41
2010-03-24 08:10:13 51°12.475 2°48.628 7.9 307 9.8 100800 41
2010-03-24 08:10:18 51°12.466 2°48.602 7.3 27 9.8 100790 39
2010-03-24 08:10:23 51°12.458 2°48.576 7.6 282 9.8 100790 39
2010-03-24 08:10:28 51°12.449 2°48.549 7.3 24 9.8 100790 39
2010-03-24 08:10:33 51°12.441 2°48.523 8 308 9.8 100790 39
2010-03-24 08:10:37 51°12.434 2°48.502 7.7 19 9.8 100790 41
2010-03-24 08:10:43 51°12.424 2°48.47 8.5 303 9.8 100790 41
2010-03-24 08:10:48 51°12.416 2°48.444 7.9 20 9.8 100790 40
2010-03-24 08:10:53 51°12.407 2°48.417 8.3 306 9.8 100790 40
2010-03-24 08:10:58 51°12.399 2°48.391 7.8 26 9.8 100790 40
2010-03-24 08:11:03 51°12.39 2°48.364 7.3 302 9.8 100790 40
2010-03-24 08:11:08 51°12.382 2°48.337 7.6 28 9.8 100790 39
2010-03-24 08:11:13 51°12.374 2°48.311 6.9 283 9.8 100790 39
2010-03-24 08:11:18 51°12.366 2°48.285 7 28 9.8 100780 41
2010-03-24 08:11:23 51°12.357 2°48.258 7.5 308 9.8 100780 41
2010-03-24 08:11:28 51°12.348 2°48.232 7.5 22 9.8 100790 41
2010-03-24 08:11:33 51°12.34 2°48.205 8.1 303 9.8 100790 41
2010-03-24 08:11:38 51°12.332 2°48.179 8.2 22 9.8 100790 39
2010-03-24 08:11:43 51°12.324 2°48.152 8.4 309 9.8 100790 39
2010-03-24 08:11:48 51°12.315 2°48.125 7.9 24 9.8 100790 41
2010-03-24 08:11:53 51°12.307 2°48.099 8 305 9.8 100790 41
2010-03-24 08:11:58 51°12.298 2°48.072 7.3 19 9.8 100790 40
2010-03-24 08:12:03 51°12.29 2°48.045 7.6 309 9.8 100790 40
2010-03-24 08:12:08 51°12.282 2°48.019 8.1 22 9.8 100780 40
2010-03-24 08:12:13 51°12.273 2°47.992 7.5 283 9.8 100780 40
2010-03-24 08:12:18 51°12.265 2°47.966 7.2 22 9.8 100780 40
2010-03-24 08:12:23 51°12.257 2°47.939 8.2 307 9.8 100780 40
2010-03-24 08:12:28 51°12.249 2°47.913 7.5 22 9.8 100790 40
2010-03-24 08:12:33 51°12.24 2°47.886 8.1 305 9.8 100790 40
2010-03-24 08:12:38 51°12.232 2°47.859 8.1 19 9.8 100780 39
2010-03-24 08:12:43 51°12.223 2°47.833 8.1 309 9.8 100780 39
2010-03-24 08:12:48 51°12.215 2°47.806 8 19 9.8 100780 39
2010-03-24 08:12:53 51°12.207 2°47.78 7.5 302 9.8 100780 39
2010-03-24 08:12:58 51°12.198 2°47.753 8.8 20 9.8 100780 40
2010-03-24 08:13:03 51°12.19 2°47.726 8.3 306 9.8 100780 40
2010-03-24 08:13:08 51°12.182 2°47.699 7.7 21 9.8 100780 40
2010-03-24 08:13:13 51°12.173 2°47.673 7.7 310 9.8 100780 40
2010-03-24 08:13:18 51°12.165 2°47.646 7.8 21 9.9 100780 39
2010-03-24 08:13:23 51°12.157 2°47.619 8.1 308 9.9 100780 39
2010-03-24 08:13:28 51°12.149 2°47.592 7.7 18 9.9 100780 39
2010-03-24 08:13:33 51°12.14 2°47.566 8 301 9.9 100780 39
2010-03-24 08:13:38 51°12.132 2°47.539 7.7 27 9.9 100780 40
2010-03-24 08:13:43 51°12.124 2°47.512 8.7 302 9.9 100780 40
2010-03-24 08:13:48 51°12.116 2°47.486 8.3 22 9.9 100770 39
2010-03-24 08:13:53 51°12.107 2°47.459 8.1 307 9.9 100770 39
2010-03-24 08:13:58 51°12.099 2°47.432 7.9 25 9.9 100780 40
2010-03-24 08:14:03 51°12.09 2°47.405 7.5 303 9.9 100780 40
2010-03-24 08:14:08 51°12.082 2°47.378 7.5 26 9.9 100780 39
2010-03-24 08:14:13 51°12.074 2°47.351 8.3 306 9.9 100780 39
2010-03-24 08:14:18 51°12.066 2°47.325 8.4 25 9.9 100780 40
2010-03-24 08:14:23 51°12.058 2°47.298 8.5 305 9.9 100780 40
2010-03-24 08:14:28 51°12.049 2°47.271 8.3 21 9.9 100780 40
2010-03-24 08:14:33 51°12.041 2°47.244 8 307 9.9 100780 40
2010-03-24 08:14:38 51°12.033 2°47.217 7.3 22 9.9 100780 39
2010-03-24 08:14:43 51°12.025 2°47.19 7.6 310 9.9 100780 39
2010-03-24 08:14:48 51°12.017 2°47.163 7.6 21 9.9 100780 39
2010-03-24 08:14:53 51°12.009 2°47.136 7.5 308 9.9 100780 39
2010-03-24 08:14:58 51°12 2°47.11 8.2 29 9.9 100780 40
2010-03-24 08:15:03 51°11.992 2°47.083 7.9 303 9.9 100780 40
2010-03-24 08:15:08 51°11.984 2°47.056 7.1 23 9.9 100780 40
2010-03-24 08:15:13 51°11.976 2°47.03 7.7 304 9.9 100780 40
2010-03-24 08:15:18 51°11.967 2°47.003 7.6 27 9.9 100780 40
2010-03-24 08:15:23 51°11.959 2°46.976 7.2 300 9.9 100780 40
2010-03-24 08:15:28 51°11.951 2°46.949 7.2 26 9.9 100770 39
2010-03-24 08:15:33 51°11.943 2°46.922 7.8 306 9.9 100770 39
2010-03-24 08:15:38 51°11.935 2°46.895 7.6 22 9.9 100780 39
2010-03-24 08:15:43 51°11.927 2°46.868 7.5 309 9.9 100780 39
2010-03-24 08:15:48 51°11.919 2°46.842 7.5 22 9.9 100780 39
2010-03-24 08:15:53 51°11.911 2°46.815 7.7 304 9.9 100780 39
2010-03-24 08:15:58 51°11.902 2°46.788 7.1 21 9.9 100780 41
2010-03-24 08:16:03 51°11.894 2°46.761 7.6 303 9.9 100780 41
2010-03-24 08:16:08 51°11.886 2°46.734 8.2 22 9.9 100780 39
2010-03-24 08:16:13 51°11.878 2°46.708 7.6 301 9.9 100780 39
2010-03-24 08:16:18 51°11.87 2°46.681 8.2 28 9.9 100780 40
2010-03-24 08:16:23 51°11.862 2°46.655 7.7 303 9.9 100780 40
2010-03-24 08:16:28 51°11.853 2°46.628 7.9 26 9.9 100780 39
2010-03-24 08:16:33 51°11.846 2°46.601 7.8 304 9.9 100780 39
2010-03-24 08:16:37 51°11.839 2°46.579 7.9 27 9.8 100780 40
2010-03-24 08:16:43 51°11.83 2°46.547 7.7 308 9.8 100780 40
2010-03-24 08:16:48 51°11.821 2°46.52 7 25 9.9 100780 41
2010-03-24 08:16:53 51°11.813 2°46.493 7.4 304 9.9 100780 41
2010-03-24 08:16:58 51°11.805 2°46.466 7.9 25 9.9 100780 40
2010-03-24 08:17:03 51°11.797 2°46.439 7.3 306 9.9 100780 40
2010-03-24 08:17:08 51°11.789 2°46.412 7.1 22 9.8 100780 39
2010-03-24 08:17:13 51°11.781 2°46.385 7.3 306 9.8 100780 39
2010-03-24 08:17:17 51°11.775 2°46.363 6.8 24 9.8 100780 40
2010-03-24 08:17:23 51°11.765 2°46.331 7.3 309 9.8 100780 40
2010-03-24 08:17:28 51°11.757 2°46.304 7.3 28 9.9 100780 39
2010-03-24 08:17:33 51°11.749 2°46.277 7.2 303 9.9 100780 39
2010-03-24 08:17:38 51°11.74 2°46.25 7.9 21 9.8 100780 41
2010-03-24 08:17:43 51°11.733 2°46.223 7.4 309 9.8 100780 41
2010-03-24 08:17:48 51°11.724 2°46.196 7.2 20 9.8 100780 39
2010-03-24 08:17:53 51°11.716 2°46.169 7.1 309 9.8 100780 39
2010-03-24 08:17:58 51°11.708 2°46.142 7.2 20 9.8 100780 40
2010-03-24 08:18:03 51°11.7 2°46.115 6.8 306 9.8 100780 40
2010-03-24 08:18:08 51°11.692 2°46.087 7.1 24 9.8 100780 40
2010-03-24 08:18:13 51°11.683 2°46.06 6.9 309 9.8 100780 40
2010-03-24 08:18:18 51°11.676 2°46.033 7.6 19 9.8 100780 40
2010-03-24 08:18:23 51°11.667 2°46.006 7.6 308 9.8 100780 40
2010-03-24 08:18:28 51°11.66 2°45.979 6.9 28 9.8 100780 40
2010-03-24 08:18:33 51°11.651 2°45.952 7.3 305 9.8 100780 40
2010-03-24 08:18:38 51°11.644 2°45.924 7 20 9.8 100780 40
2010-03-24 08:18:43 51°11.636 2°45.897 6.2 310 9.8 100780 40
2010-03-24 08:18:48 51°11.628 2°45.87 7 21 9.8 100780 39
2010-03-24 08:18:53 51°11.62 2°45.843 7.6 308 9.8 100780 39
2010-03-24 08:18:57 51°11.614 2°45.821 7.3 28 9.8 100780 41
2010-03-24 08:19:03 51°11.604 2°45.789 7.8 308 9.8 100780 41
2010-03-24 08:19:08 51°11.596 2°45.761 7.2 24 9.8 100780 41
2010-03-24 08:19:13 51°11.588 2°45.734 7.9 303 9.8 100780 41
2010-03-24 08:19:18 51°11.58 2°45.707 6.6 22 9.8 100780 40
2010-03-24 08:19:23 51°11.572 2°45.68 7 306 9.8 100780 40
2010-03-24 08:19:28 51°11.564 2°45.653 7.3 25 9.8 100780 40
2010-03-24 08:19:33 51°11.556 2°45.626 7.7 302 9.8 100780 40
2010-03-24 08:19:38 51°11.548 2°45.598 7.1 22 9.8 100790 39
2010-03-24 08:19:43 51°11.54 2°45.571 6.9 307 9.8 100790 39
2010-03-24 08:19:48 51°11.532 2°45.544 7.3 28 9.8 100780 40
2010-03-24 08:19:53 51°11.524 2°45.517 7.3 304 9.8 100780 40
2010-03-24 08:19:58 51°11.517 2°45.49 7 25 9.7 100780 40
2010-03-24 08:20:03 51°11.509 2°45.463 7.7 306 9.7 100780 40
2010-03-24 08:20:08 51°11.501 2°45.435 6.8 27 9.8 100780 41
2010-03-24 08:20:13 51°11.493 2°45.408 7 308 9.8 100780 41
2010-03-24 08:20:18 51°11.485 2°45.381 6.9 26 9.7 100780 40
2010-03-24 08:20:23 51°11.478 2°45.354 7.3 307 9.7 100780 40
2010-03-24 08:20:28 51°11.47 2°45.326 7.1 22 9.8 100790 39
2010-03-24 08:20:33 51°11.462 2°45.299 7.6 307 9.8 100790 39
2010-03-24 08:20:38 51°11.454 2°45.272 8.1 26 9.7 100780 41
2010-03-24 08:20:43 51°11.447 2°45.244 7.3 301 9.7 100780 41
2010-03-24 08:20:48 51°11.439 2°45.217 7.4 28 9.7 100780 40
2010-03-24 08:20:53 51°11.431 2°45.19 7.5 304 9.7 100780 40
2010-03-24 08:20:58 51°11.423 2°45.163 7.1 19 9.7 100780 41
2010-03-24 08:21:03 51°11.415 2°45.135 7.6 301 9.7 100780 41
2010-03-24 08:21:08 51°11.407 2°45.108 7.2 25 9.8 100780 41
2010-03-24 08:21:13 51°11.4 2°45.081 7.6 302 9.8 100780 41
2010-03-24 08:21:18 51°11.392 2°45.053 7.6 28 9.7 100780 40
2010-03-24 08:21:23 51°11.384 2°45.026 7.6 306 9.7 100780 40
2010-03-24 08:21:28 51°11.376 2°44.998 8 25 9.7 100780 41
2010-03-24 08:21:33 51°11.369 2°44.971 7 304 9.7 100780 41
2010-03-24 08:21:38 51°11.361 2°44.944 7.7 24 9.8 100780 41
2010-03-24 08:21:43 51°11.354 2°44.916 7.4 306 9.8 100780 41
2010-03-24 08:21:48 51°11.345 2°44.889 7.7 23 9.8 100780 41
2010-03-24 08:21:53 51°11.338 2°44.861 7.6 310 9.8 100780 41
2010-03-24 08:21:58 51°11.33 2°44.834 7.5 19 9.8 100770 40
2010-03-24 08:22:03 51°11.322 2°44.807 7.5 303 9.8 100770 40
2010-03-24 08:22:08 51°11.314 2°44.779 7.5 25 9.8 100780 40
2010-03-24 08:22:13 51°11.306 2°44.752 7.7 307 9.8 100780 40
2010-03-24 08:22:18 51°11.299 2°44.725 7.7 26 9.8 100780 39
2010-03-24 08:22:23 51°11.291 2°44.697 7.7 307 9.8 100780 39
2010-03-24 08:22:28 51°11.283 2°44.67 7.1 25 9.8 100780 39
2010-03-24 08:22:33 51°11.276 2°44.643 7.4 303 9.8 100780 39
2010-03-24 08:22:38 51°11.268 2°44.615 7.7 21 9.8 100780 40
2010-03-24 08:22:43 51°11.261 2°44.588 8 307 9.8 100780 40
2010-03-24 08:22:48 51°11.253 2°44.561 7.5 22 9.8 100770 40
2010-03-24 08:22:53 51°11.245 2°44.533 7.4 302 9.8 100770 40
2010-03-24 08:22:58 51°11.237 2°44.506 7.3 22 9.8 100780 41
2010-03-24 08:23:03 51°11.23 2°44.479 7.2 309 9.8 100780 41
2010-03-24 08:23:08 51°11.222 2°44.451 7.5 25 9.8 100780 40
2010-03-24 08:23:13 51°11.214 2°44.424 7.5 309 9.8 100780 40
2010-03-24 08:23:18 51°11.207 2°44.396 8.3 24 9.8 100780 40
2010-03-24 08:23:23 51°11.199 2°44.369 7.8 302 9.8 100780 40
2010-03-24 08:23:28 51°11.192 2°44.341 7.6 25 9.8 100780 40
2010-03-24 08:23:33 51°11.184 2°44.314 7.7 303 9.8 100780 40
2010-03-24 08:23:38 51°11.177 2°44.286 7.7 28 9.8 100780 40
2010-03-24 08:23:43 51°11.169 2°44.259 7.1 304 9.8 100780 40
2010-03-24 08:23:48 51°11.162 2°44.231 7.5 20 9.8 100780 40
2010-03-24 08:23:53 51°11.154 2°44.204 7.4 308 9.8 100780 40
2010-03-24 08:23:58 51°11.146 2°44.176 7.3 22 9.8 100780 40
2010-03-24 08:24:03 51°11.139 2°44.148 7.1 304 9.8 100780 40
2010-03-24 08:24:08 51°11.131 2°44.121 7.5 25 9.8 100770 40
2010-03-24 08:24:13 51°11.124 2°44.093 7.4 304 9.8 100770 40
2010-03-24 08:24:18 51°11.116 2°44.066 6.9 21 9.8 100780 39
2010-03-24 08:24:23 51°11.109 2°44.038 6.9 303 9.8 100780 39
2010-03-24 08:24:28 51°11.101 2°44.01 7.5 25 9.8 100770 41
2010-03-24 08:24:33 51°11.094 2°43.983 7.6 304 9.8 100770 41
2010-03-24 08:24:38 51°11.086 2°43.955 7.4 20 9.8 100780 41
2010-03-24 08:24:43 51°11.078 2°43.928 7.6 307 9.8 100780 41
2010-03-24 08:24:48 51°11.07 2°43.9 7.5 23 9.9 100770 40
2010-03-24 08:24:53 51°11.063 2°43.873 7.5 307 9.9 100770 40
2010-03-24 08:24:58 51°11.055 2°43.846 7.1 20 9.8 100770 41
2010-03-24 08:25:03 51°11.048 2°43.818 7.3 307 9.8 100770 41
2010-03-24 08:25:08 51°11.04 2°43.791 7.5 20 9.8 100770 41
2010-03-24 08:25:13 51°11.033 2°43.763 7.9 283 9.8 100770 41
2010-03-24 08:25:18 51°11.025 2°43.735 7.8 23 9.8 100770 40
2010-03-24 08:25:23 51°11.017 2°43.708 7.5 301 9.8 100770 40
2010-03-24 08:25:28 51°11.01 2°43.68 8.1 23 9.9 100770 39
2010-03-24 08:25:33 51°11.002 2°43.653 7.5 304 9.9 100770 39
2010-03-24 08:25:38 51°10.994 2°43.626 7.1 20 9.9 100770 39
2010-03-24 08:25:43 51°10.987 2°43.598 6.6 306 9.9 100770 39
2010-03-24 08:25:48 51°10.98 2°43.571 7.1 24 9.9 100770 39
2010-03-24 08:25:53 51°10.973 2°43.543 7.2 304 9.9 100770 39
2010-03-24 08:25:57 51°10.967 2°43.52 6.7 26 9.9 100770 39
2010-03-24 08:26:03 51°10.96 2°43.486 7.5 304 9.9 100770 39
2010-03-24 08:26:08 51°10.953 2°43.458 7.4 27 9.9 100780 40
2010-03-24 08:26:13 51°10.948 2°43.43 7 278 9.9 100780 40
2010-03-24 08:26:18 51°10.941 2°43.401 7.4 24 9.9 100770 41
2010-03-24 08:26:23 51°10.936 2°43.373 7.8 304 9.9 100770 41
2010-03-24 08:26:28 51°10.93 2°43.344 8 23 9.9 100770 41
2010-03-24 08:26:33 51°10.924 2°43.316 7.6 306 9.9 100770 41
2010-03-24 08:26:38 51°10.918 2°43.287 6.8 26 9.9 100770 41
2010-03-24 08:26:43 51°10.912 2°43.259 6.8 303 9.9 100770 41
2010-03-24 08:26:48 51°10.906 2°43.23 7.1 22 9.9 100770 39
2010-03-24 08:26:53 51°10.9 2°43.202 7.4 310 9.9 100770 39
2010-03-24 08:26:58 51°10.895 2°43.173 7.2 25 9.9 100770 41
2010-03-24 08:27:03 51°10.889 2°43.145 7.4 304 9.9 100770 41
2010-03-24 08:27:08 51°10.883 2°43.116 7.4 18 9.9 100770 40
2010-03-24 08:27:13 51°10.877 2°43.087 7.1 302 9.9 100770 40
2010-03-24 08:27:18 51°10.872 2°43.059 7.2 22 9.9 100770 39
2010-03-24 08:27:23 51°10.865 2°43.031 7.5 308 9.9 100770 39
2010-03-24 08:27:28 51°10.86 2°43.002 8 23 9.9 100770 41
2010-03-24 08:27:33 51°10.853 2°42.973 7.4 301 9.9 100770 41
2010-03-24 08:27:38 51°10.848 2°42.945 7.4 21 9.9 100770 40
2010-03-24 08:27:43 51°10.841 2°42.917 7.5 302 9.9 100770 40
2010-03-24 08:27:48 51°10.836 2°42.888 7.9 25 9.9 100780 39
2010-03-24 08:27:53 51°10.829 2°42.86 7.7 308 9.9 100780 39
2010-03-24 08:27:57 51°10.825 2°42.837 7.2 28 9.9 100770 39
2010-03-24 08:28:03 51°10.817 2°42.802 6.9 306 9.9 100770 39
2010-03-24 08:28:08 51°10.811 2°42.774 7.4 23 10 100770 39
2010-03-24 08:28:13 51°10.805 2°42.745 8.1 280 10 100770 39
2010-03-24 08:28:18 51°10.799 2°42.717 7.2 25 10 100770 40
2010-03-24 08:28:23 51°10.794 2°42.688 7.6 309 10 100770 40
2010-03-24 08:28:28 51°10.788 2°42.66 6.9 27 9.9 100770 39
2010-03-24 08:28:33 51°10.782 2°42.631 7.1 304 9.9 100770 39
2010-03-24 08:28:38 51°10.776 2°42.602 6.8 27 10 100770 39
2010-03-24 08:28:43 51°10.77 2°42.573 7.6 302 10 100770 39
2010-03-24 08:28:48 51°10.764 2°42.545 6.7 28 10 100770 40
2010-03-24 08:28:53 51°10.758 2°42.516 7.9 302 10 100770 40
2010-03-24 08:28:58 51°10.752 2°42.488 7.9 20 10 100770 41
2010-03-24 08:29:03 51°10.746 2°42.459 8.4 305 10 100770 41
2010-03-24 08:29:08 51°10.74 2°42.43 7.1 29 10 100770 40
2010-03-24 08:29:13 51°10.734 2°42.402 6.9 303 10 100770 40
2010-03-24 08:29:18 51°10.728 2°42.373 6.7 25 10 100770 39
2010-03-24 08:29:23 51°10.722 2°42.344 7.3 307 10 100770 39
2010-03-24 08:29:28 51°10.716 2°42.315 7.6 27 10 100770 41
2010-03-24 08:29:33 51°10.71 2°42.287 7.3 302 10 100770 41
2010-03-24 08:29:38 51°10.704 2°42.258 7.7 24 10 100770 40
2010-03-24 08:29:43 51°10.699 2°42.229 7 307 10 100770 40
2010-03-24 08:29:48 51°10.693 2°42.201 7.5 26 10 100770 41
2010-03-24 08:29:53 51°10.687 2°42.172 7.7 306 10 100770 41
2010-03-24 08:29:58 51°10.681 2°42.143 7.6 22 10 100770 41
2010-03-24 08:30:03 51°10.675 2°42.115 7.2 302 10 100770 41
2010-03-24 08:30:08 51°10.669 2°42.086 6.7 28 10 100770 39
2010-03-24 08:30:13 51°10.663 2°42.057 7 278 10 100770 39
2010-03-24 08:30:17 51°10.658 2°42.035 7.5 27 10 100770 40
2010-03-24 08:30:23 51°10.651 2°42 6.9 310 10 100770 40
2010-03-24 08:30:28 51°10.646 2°41.972 6.6 18 10 100770 41
2010-03-24 08:30:33 51°10.64 2°41.943 6.6 304 10 100770 41
2010-03-24 08:30:38 51°10.634 2°41.914 6.6 22 10 100770 40
2010-03-24 08:30:43 51°10.628 2°41.886 6.6 310 10 100770 40
2010-03-24 08:30:48 51°10.623 2°41.857 6.5 21 10 100770 39
2010-03-24 08:30:53 51°10.617 2°41.829 7.5 310 10 100770 39
2010-03-24 08:30:58 51°10.611 2°41.8 8 22 10 100770 39
2010-03-24 08:31:03 51°10.605 2°41.772 7.1 308 10 100770 39
2010-03-24 08:31:08 51°10.599 2°41.743 7.6 21 10 100770 39
2010-03-24 08:31:13 51°10.593 2°41.715 6.8 303 10 100770 39
2010-03-24 08:31:18 51°10.588 2°41.687 7.2 22 10 100770 40
2010-03-24 08:31:23 51°10.582 2°41.658 7.4 309 10 100770 40
2010-03-24 08:31:28 51°10.576 2°41.63 7.3 24 10 100770 41
2010-03-24 08:31:33 51°10.57 2°41.601 6.9 305 10 100770 41
2010-03-24 08:31:38 51°10.564 2°41.573 7.4 24 10 100770 39
2010-03-24 08:31:43 51°10.559 2°41.544 7.3 303 10 100770 39
2010-03-24 08:31:48 51°10.553 2°41.516 7.1 26 10 100770 40
2010-03-24 08:31:53 51°10.547 2°41.487 8.3 303 10 100770 40
2010-03-24 08:31:58 51°10.542 2°41.459 7.7 25 10 100770 39
2010-03-24 08:32:03 51°10.536 2°41.43 7.3 301 10 100770 39
2010-03-24 08:32:08 51°10.53 2°41.402 7.6 245 10 100770 39
2010-03-24 08:32:13 51°10.524 2°41.374 7.2 281 10 100770 39
2010-03-24 08:32:18 51°10.518 2°41.346 7.1 24 10 100770 39
2010-03-24 08:32:23 51°10.512 2°41.317 7.2 309 10 100770 39
2010-03-24 08:32:28 51°10.507 2°41.289 7.7 25 10 100760 40
2010-03-24 08:32:33 51°10.501 2°41.26 7.7 307 10 100760 40
2010-03-24 08:32:37 51°10.497 2°41.237 7.5 27 10 100770 39
2010-03-24 08:32:43 51°10.489 2°41.203 7.4 309 10 100770 39
2010-03-24 08:32:48 51°10.484 2°41.175 6.9 22 10 100760 40
2010-03-24 08:32:53 51°10.478 2°41.147 7.4 309 10 100760 40
2010-03-24 08:32:58 51°10.472 2°41.118 7.2 21 10 100760 39
2010-03-24 08:33:03 51°10.467 2°41.09 7.1 304 10 100760 39
2010-03-24 08:33:08 51°10.461 2°41.061 7.4 23 10 100760 40
2010-03-24 08:33:13 51°10.455 2°41.033 7.4 309 10 100760 40
2010-03-24 08:33:18 51°10.449 2°41.005 7.8 24 10 100760 39
2010-03-24 08:33:23 51°10.444 2°40.976 7.6 303 10 100760 39
2010-03-24 08:33:28 51°10.438 2°40.948 7.6 26 10 100760 39
2010-03-24 08:33:33 51°10.432 2°40.919 7.4 306 10 100760 39
2010-03-24 08:33:38 51°10.426 2°40.891 8.3 25 10 100760 40
2010-03-24 08:33:43 51°10.421 2°40.863 7.6 308 10 100760 40
2010-03-24 08:33:48 51°10.414 2°40.835 7.7 23 10 100760 39
2010-03-24 08:33:53 51°10.409 2°40.806 6.9 307 10 100760 39
2010-03-24 08:33:58 51°10.403 2°40.778 7.2 22 10 100760 40
2010-03-24 08:34:03 51°10.397 2°40.75 7.8 306 10 100760 40
2010-03-24 08:34:08 51°10.392 2°40.721 7.6 26 10 100760 40
2010-03-24 08:34:13 51°10.386 2°40.692 8.7 280 10 100760 40
2010-03-24 08:34:18 51°10.38 2°40.664 7.5 25 10 100760 40
2010-03-24 08:34:23 51°10.374 2°40.636 7.3 308 10 100760 40
2010-03-24 08:34:28 51°10.369 2°40.607 7.5 22 10 100760 41
2010-03-24 08:34:33 51°10.363 2°40.579 7.6 303 10 100760 41
2010-03-24 08:34:38 51°10.357 2°40.55 7.4 22 10 100760 39
2010-03-24 08:34:43 51°10.351 2°40.522 6.9 305 10 100760 39
2010-03-24 08:34:48 51°10.345 2°40.493 7.4 20 10 100760 41
2010-03-24 08:34:53 51°10.34 2°40.465 6.9 303 10 100760 41
2010-03-24 08:34:57 51°10.335 2°40.442 7.4 23 10 100760 40
2010-03-24 08:35:03 51°10.328 2°40.408 7.7 304 10 100760 40
2010-03-24 08:35:08 51°10.323 2°40.38 7.9 28 10 100760 39
2010-03-24 08:35:13 51°10.317 2°40.351 7.8 281 10 100760 39
2010-03-24 08:35:18 51°10.311 2°40.323 7.5 23 10 100760 39
2010-03-24 08:35:23 51°10.305 2°40.294 7.8 304 10 100760 39
2010-03-24 08:35:28 51°10.299 2°40.266 7.8 20 10 100760 41
2010-03-24 08:35:33 51°10.294 2°40.237 7.4 308 10 100760 41
2010-03-24 08:35:38 51°10.288 2°40.209 7.8 22 10 100760 41
2010-03-24 08:35:43 51°10.283 2°40.18 7.1 306 10 100760 41
2010-03-24 08:35:48 51°10.277 2°40.151 8.2 21 10 100760 39
2010-03-24 08:35:53 51°10.272 2°40.122 8.5 310 10 100760 39
2010-03-24 08:35:58 51°10.266 2°40.094 7.6 24 10 100760 40
2010-03-24 08:36:03 51°10.26 2°40.065 7.7 309 10 100760 40
2010-03-24 08:36:08 51°10.254 2°40.037 6.9 22 10 100760 41
2010-03-24 08:36:13 51°10.249 2°40.008 8.3 310 10 100760 41
2010-03-24 08:36:18 51°10.243 2°39.98 8.2 18 10 100760 40
2010-03-24 08:36:23 51°10.237 2°39.951 7.8 306 10 100760 40
2010-03-24 08:36:28 51°10.232 2°39.922 7.8 19 10 100760 39
2010-03-24 08:36:33 51°10.226 2°39.894 7.7 303 10 100760 39
2010-03-24 08:36:38 51°10.221 2°39.865 8 29 10 100760 40
2010-03-24 08:36:43 51°10.215 2°39.836 7.7 304 10 100760 40
2010-03-24 08:36:48 51°10.21 2°39.807 8.3 28 10 100750 40
2010-03-24 08:36:53 51°10.203 2°39.779 7.5 308 10 100750 40
2010-03-24 08:36:58 51°10.197 2°39.751 7.8 21 10 100750 41
2010-03-24 08:37:03 51°10.191 2°39.723 8.5 302 10 100750 41
2010-03-24 08:37:08 51°10.184 2°39.695 7.8 28 10 100760 40
2010-03-24 08:37:13 51°10.177 2°39.667 7.4 280 10 100760 40
2010-03-24 08:37:18 51°10.171 2°39.639 7.9 26 10 100750 40
2010-03-24 08:37:23 51°10.164 2°39.611 7.9 305 10 100750 40
2010-03-24 08:37:28 51°10.156 2°39.584 8.7 19 10 100750 41
2010-03-24 08:37:33 51°10.149 2°39.556 7.4 305 10 100750 41
2010-03-24 08:37:38 51°10.142 2°39.529 7.8 25 10 100760 39
2010-03-24 08:37:43 51°10.134 2°39.501 8.1 309 10 100760 39
2010-03-24 08:37:48 51°10.127 2°39.473 7.8 26 10 100760 39
2010-03-24 08:37:53 51°10.12 2°39.446 7.5 303 10 100760 39
2010-03-24 08:37:57 51°10.114 2°39.423 8 26 10 100750 41
2010-03-24 08:38:03 51°10.106 2°39.39 8 310 10 100750 41
2010-03-24 08:38:08 51°10.098 2°39.362 7.4 25 10 100750 40
2010-03-24 08:38:13 51°10.091 2°39.335 7.8 308 10 100750 40
2010-03-24 08:38:18 51°10.084 2°39.307 7.4 24 10 100750 40
2010-03-24 08:38:23 51°10.077 2°39.279 7.3 307 10 100750 40
2010-03-24 08:38:28 51°10.07 2°39.251 7.9 23 10 100750 41
2010-03-24 08:38:33 51°10.062 2°39.223 7.4 304 10 100750 41
2010-03-24 08:38:38 51°10.056 2°39.195 7.6 22 10 100750 40
2010-03-24 08:38:43 51°10.048 2°39.167 7.4 304 10 100750 40
2010-03-24 08:38:48 51°10.041 2°39.139 8.6 21 10 100750 39
2010-03-24 08:38:53 51°10.034 2°39.111 7.9 307 10 100750 39
2010-03-24 08:38:58 51°10.027 2°39.083 7.3 27 10 100750 40
2010-03-24 08:39:03 51°10.02 2°39.055 7.8 308 10 100750 40
2010-03-24 08:39:08 51°10.013 2°39.027 7.5 19 10 100750 39
2010-03-24 08:39:13 51°10.006 2°38.999 7.6 284 10 100750 39
2010-03-24 08:39:18 51°9.999 2°38.971 7.9 18 10 100740 40
2010-03-24 08:39:23 51°9.991 2°38.943 7.7 307 10 100740 40
2010-03-24 08:39:28 51°9.984 2°38.916 7.3 26 10 100750 39
2010-03-24 08:39:33 51°9.977 2°38.888 8 302 10 100750 39
2010-03-24 08:39:38 51°9.97 2°38.859 7 24 10 100750 41
2010-03-24 08:39:43 51°9.963 2°38.832 7.6 306 10 100750 41
2010-03-24 08:39:48 51°9.956 2°38.803 7 24 10 100750 41
2010-03-24 08:39:53 51°9.948 2°38.776 7.7 302 10 100750 41
2010-03-24 08:39:58 51°9.942 2°38.747 8 23 10.1 100750 41
2010-03-24 08:40:03 51°9.934 2°38.72 8.8 304 10.1 100750 41
2010-03-24 08:40:08 51°9.927 2°38.691 8.3 26 10 100750 41
2010-03-24 08:40:13 51°9.92 2°38.663 8.3 282 10 100750 41
2010-03-24 08:40:18 51°9.913 2°38.636 7.8 25 10 100740 41
2010-03-24 08:40:23 51°9.906 2°38.607 7.8 307 10 100740 41
2010-03-24 08:40:28 51°9.899 2°38.579 8.5 26 10.1 100750 41
2010-03-24 08:40:33 51°9.891 2°38.551 8.4 309 10.1 100750 41
2010-03-24 08:40:38 51°9.884 2°38.523 8.6 19 10.1 100740 41
2010-03-24 08:40:43 51°9.877 2°38.495 7.9 307 10.1 100740 41
2010-03-24 08:40:48 51°9.87 2°38.467 7.5 26 10.1 100740 40
2010-03-24 08:40:53 51°9.863 2°38.439 8.4 306 10.1 100740 40
2010-03-24 08:40:58 51°9.856 2°38.411 9 27 10.1 100740 39
2010-03-24 08:41:03 51°9.849 2°38.382 8.2 307 10.1 100740 39
2010-03-24 08:41:08 51°9.841 2°38.354 8.4 21 10.1 100740 39
2010-03-24 08:41:13 51°9.834 2°38.326 9 281 10.1 100740 39
2010-03-24 08:41:17 51°9.828 2°38.304 9.1 26 10.1 100740 39
2010-03-24 08:41:23 51°9.82 2°38.27 8 304 10.1 100740 39
2010-03-24 08:41:28 51°9.813 2°38.242 7.9 26 10.1 100740 41
2010-03-24 08:41:33 51°9.805 2°38.214 9.2 307 10.1 100740 41
2010-03-24 08:41:38 51°9.798 2°38.186 8.7 21 10.1 100740 39
2010-03-24 08:41:43 51°9.791 2°38.157 8.4 305 10.1 100740 39
2010-03-24 08:41:48 51°9.784 2°38.129 8.3 24 10.1 100740 38
2010-03-24 08:41:53 51°9.777 2°38.101 8.5 305 10.1 100740 38
2010-03-24 08:41:57 51°9.771 2°38.078 8.3 25 10.1 100740 39
2010-03-24 08:42:03 51°9.763 2°38.045 8.5 305 10.1 100740 39
2010-03-24 08:42:08 51°9.755 2°38.016 7.9 23 10.1 100740 39
2010-03-24 08:42:13 51°9.748 2°37.988 8.5 308 10.1 100740 39
2010-03-24 08:42:18 51°9.741 2°37.96 7.8 23 10.1 100750 39
2010-03-24 08:42:23 51°9.734 2°37.932 8.2 303 10.1 100750 39
2010-03-24 08:42:28 51°9.726 2°37.905 8.3 23 10.2 100740 39
2010-03-24 08:42:33 51°9.719 2°37.876 8.5 305 10.2 100740 39
2010-03-24 08:42:38 51°9.712 2°37.848 8.1 21 10.1 100740 41
2010-03-24 08:42:43 51°9.705 2°37.82 8.5 305 10.1 100740 41
2010-03-24 08:42:48 51°9.698 2°37.791 8.2 21 10.2 100740 40
2010-03-24 08:42:53 51°9.691 2°37.763 8.4 302 10.2 100740 40
2010-03-24 08:42:58 51°9.684 2°37.735 8.4 27 10.2 100740 39
2010-03-24 08:43:03 51°9.677 2°37.706 8.7 307 10.2 100740 39
2010-03-24 08:43:08 51°9.67 2°37.677 8.5 23 10.2 100740 40
2010-03-24 08:43:13 51°9.663 2°37.649 8 282 10.2 100740 40
2010-03-24 08:43:17 51°9.657 2°37.626 8.7 26 10.2 100740 39
2010-03-24 08:43:23 51°9.649 2°37.592 8.3 310 10.2 100740 39
2010-03-24 08:43:28 51°9.642 2°37.564 8 24 10.2 100740 40
2010-03-24 08:43:33 51°9.635 2°37.535 8.5 305 10.2 100740 40
2010-03-24 08:43:38 51°9.628 2°37.507 8.2 28 10.2 100740 40
2010-03-24 08:43:43 51°9.621 2°37.479 8.2 310 10.2 100740 40
2010-03-24 08:43:48 51°9.613 2°37.451 8 25 10.2 100740 39
2010-03-24 08:43:53 51°9.606 2°37.422 7.8 302 10.2 100740 39
2010-03-24 08:43:58 51°9.599 2°37.394 7.8 25 10.2 100740 39
2010-03-24 08:44:03 51°9.592 2°37.366 8.4 302 10.2 100740 39
2010-03-24 08:44:08 51°9.585 2°37.338 8.1 20 10.2 100740 40
2010-03-24 08:44:13 51°9.578 2°37.309 8 309 10.2 100740 40
2010-03-24 08:44:18 51°9.57 2°37.281 8.3 20 10.2 100740 40
2010-03-24 08:44:23 51°9.563 2°37.252 8.5 304 10.2 100740 40
2010-03-24 08:44:28 51°9.556 2°37.224 8.6 24 10.2 100740 40
2010-03-24 08:44:33 51°9.549 2°37.196 9 306 10.2 100740 40
2010-03-24 08:44:37 51°9.543 2°37.173 8.6 19 10.2 100740 40
2010-03-24 08:44:43 51°9.534 2°37.139 7.6 309 10.2 100740 40
2010-03-24 08:44:48 51°9.527 2°37.111 7.3 23 10.2 100740 39
2010-03-24 08:44:53 51°9.519 2°37.084 8.7 309 10.2 100740 39
2010-03-24 08:44:58 51°9.511 2°37.056 8.4 21 10.2 100740 40
2010-03-24 08:45:03 51°9.502 2°37.029 8.5 308 10.2 100740 40
2010-03-24 08:45:08 51°9.494 2°37.001 8.4 27 10.2 100740 40
2010-03-24 08:45:13 51°9.486 2°36.974 7.7 285 10.2 100740 40
2010-03-24 08:45:18 51°9.477 2°36.947 9.2 25 10.2 100740 39
2010-03-24 08:45:23 51°9.468 2°36.919 9 301 10.2 100740 39
2010-03-24 08:45:28 51°9.46 2°36.893 9.4 27 10.2 100740 39
2010-03-24 08:45:33 51°9.451 2°36.866 9.6 307 10.2 100740 39
2010-03-24 08:45:38 51°9.442 2°36.839 8 26 10.2 100740 39
2010-03-24 08:45:43 51°9.433 2°36.812 8.4 309 10.2 100740 39
2010-03-24 08:45:48 51°9.424 2°36.784 9.8 23 10.2 100730 39
2010-03-24 08:45:53 51°9.416 2°36.757 7.9 304 10.2 100730 39
2010-03-24 08:45:57 51°9.409 2°36.735 9.4 26 10.2 100730 40
2010-03-24 08:46:03 51°9.398 2°36.703 8 302 10.2 100730 40
2010-03-24 08:46:08 51°9.39 2°36.675 8.2 20 10.2 100730 40
2010-03-24 08:46:13 51°9.381 2°36.648 8.3 305 10.2 100730 40
2010-03-24 08:46:18 51°9.372 2°36.621 8.7 26 10.2 100740 40
2010-03-24 08:46:23 51°9.364 2°36.594 8.2 303 10.2 100740 40
2010-03-24 08:46:28 51°9.355 2°36.567 8 22 10.2 100740 40
2010-03-24 08:46:33 51°9.346 2°36.539 8.4 303 10.2 100740 40
2010-03-24 08:46:38 51°9.338 2°36.512 8.5 22 10.2 100740 40
2010-03-24 08:46:43 51°9.329 2°36.485 8.4 303 10.2 100740 40
2010-03-24 08:46:48 51°9.32 2°36.458 9.6 21 10.2 100740 40
2010-03-24 08:46:53 51°9.311 2°36.43 7.6 305 10.2 100740 40
2010-03-24 08:46:58 51°9.303 2°36.403 8.9 25 10.2 100740 41
2010-03-24 08:47:03 51°9.294 2°36.376 8.3 304 10.2 100740 41
2010-03-24 08:47:08 51°9.285 2°36.348 7.9 22 10.2 100730 39
2010-03-24 08:47:13 51°9.276 2°36.321 8.3 285 10.2 100730 39
2010-03-24 08:47:18 51°9.267 2°36.294 7.8 26 10.2 100740 40
2010-03-24 08:47:23 51°9.259 2°36.267 8.2 306 10.2 100740 40
2010-03-24 08:47:28 51°9.25 2°36.239 8.3 22 10.2 100740 40
2010-03-24 08:47:33 51°9.241 2°36.212 7.8 307 10.2 100740 40
2010-03-24 08:47:38 51°9.232 2°36.185 8.1 28 10.2 100740 39
2010-03-24 08:47:43 51°9.224 2°36.158 8 307 10.2 100740 39
2010-03-24 08:47:48 51°9.215 2°36.13 8.2 19 10.2 100740 39
2010-03-24 08:47:53 51°9.206 2°36.103 8.2 303 10.2 100740 39
2010-03-24 08:47:57 51°9.199 2°36.081 8.5 20 10.2 100740 39
2010-03-24 08:48:03 51°9.189 2°36.049 8.2 303 10.2 100740 39
2010-03-24 08:48:08 51°9.18 2°36.022 7.6 26 10.2 100740 39
2010-03-24 08:48:13 51°9.171 2°35.994 8.7 306 10.2 100740 39
2010-03-24 08:48:18 51°9.162 2°35.967 7.6 25 10.2 100740 40
2010-03-24 08:48:23 51°9.154 2°35.94 8.2 302 10.2 100740 40
2010-03-24 08:48:28 51°9.145 2°35.913 8.3 21 10.2 100740 40
2010-03-24 08:48:33 51°9.136 2°35.886 8.2 304 10.2 100740 40
2010-03-24 08:48:37 51°9.129 2°35.864 8.1 23 10.2 100740 40
2010-03-24 08:48:43 51°9.118 2°35.832 8.1 310 10.2 100740 40
2010-03-24 08:48:48 51°9.109 2°35.805 8.2 20 10.2 100740 39
2010-03-24 08:48:53 51°9.101 2°35.778 8.6 307 10.2 100740 39
2010-03-24 08:48:58 51°9.092 2°35.75 8.2 26 10.2 100740 40
2010-03-24 08:49:03 51°9.083 2°35.723 8.1 310 10.2 100740 40
2010-03-24 08:49:08 51°9.075 2°35.695 8.2 21 10.2 100730 39
2010-03-24 08:49:13 51°9.066 2°35.668 7.5 282 10.2 100730 39
2010-03-24 08:49:18 51°9.057 2°35.641 8.6 21 10.2 100740 39
2010-03-24 08:49:23 51°9.048 2°35.614 8.4 308 10.2 100740 39
2010-03-24 08:49:28 51°9.04 2°35.586 8.3 22 10.2 100740 39
2010-03-24 08:49:33 51°9.031 2°35.559 8.2 309 10.2 100740 39
2010-03-24 08:49:38 51°9.022 2°35.532 8.2 19 10.2 100740 39
2010-03-24 08:49:43 51°9.013 2°35.505 7.5 306 10.2 100740 39
2010-03-24 08:49:48 51°9.005 2°35.477 8.3 22 10.1 100740 38
2010-03-24 08:49:53 51°8.996 2°35.45 7.4 279 10.1 100740 38
2010-03-24 08:49:58 51°8.987 2°35.423 8.1 25 10.2 100740 41
2010-03-24 08:50:03 51°8.979 2°35.395 8 309 10.2 100740 41
2010-03-24 08:50:08 51°8.97 2°35.368 7.7 27 10.2 100740 40
2010-03-24 08:50:13 51°8.961 2°35.341 8.3 278 10.2 100740 40
2010-03-24 08:50:18 51°8.952 2°35.313 8.5 23 10.1 100730 40
2010-03-24 08:50:23 51°8.944 2°35.286 8.5 306 10.1 100730 40
2010-03-24 08:50:28 51°8.934 2°35.259 8.3 23 10.1 100730 39
2010-03-24 08:50:33 51°8.925 2°35.232 7.8 285 10.1 100730 39
2010-03-24 08:50:37 51°8.918 2°35.211 8.3 25 10.1 100730 40
2010-03-24 08:50:43 51°8.906 2°35.179 8.7 308 10.1 100730 40
2010-03-24 08:50:48 51°8.897 2°35.152 8.7 25 10.2 100730 39
2010-03-24 08:50:53 51°8.887 2°35.126 8.1 306 10.2 100730 39
2010-03-24 08:50:58 51°8.878 2°35.099 8.1 25 10.1 100730 40
2010-03-24 08:51:03 51°8.868 2°35.073 8.3 284 10.1 100730 40
2010-03-24 08:51:08 51°8.858 2°35.046 7.8 21 10.1 100730 40
2010-03-24 08:51:13 51°8.849 2°35.02 8 305 10.1 100730 40
2010-03-24 08:51:18 51°8.839 2°34.993 8.1 28 10.1 100730 40
2010-03-24 08:51:23 51°8.829 2°34.967 8.2 280 10.1 100730 40
2010-03-24 08:51:28 51°8.82 2°34.94 8.7 19 10.1 100730 40
2010-03-24 08:51:33 51°8.81 2°34.914 8.6 306 10.1 100730 40
2010-03-24 08:51:38 51°8.8 2°34.887 7.3 20 10.1 100730 39
2010-03-24 08:51:43 51°8.791 2°34.861 8.5 311 10.1 100730 39
2010-03-24 08:51:48 51°8.781 2°34.834 8.3 24 10.1 100730 39
2010-03-24 08:51:53 51°8.771 2°34.808 8.3 304 10.1 100730 39
2010-03-24 08:51:58 51°8.762 2°34.781 7.8 23 10.1 100730 40
2010-03-24 08:52:03 51°8.752 2°34.755 8.1 283 10.1 100730 40
2010-03-24 08:52:08 51°8.742 2°34.728 8.9 28 10.1 100730 39
2010-03-24 08:52:13 51°8.733 2°34.701 8.4 284 10.1 100730 39
2010-03-24 08:52:18 51°8.723 2°34.675 8.3 28 10.1 100730 39
2010-03-24 08:52:23 51°8.713 2°34.649 8.8 307 10.1 100730 39
2010-03-24 08:52:28 51°8.703 2°34.622 8.8 23 10.1 100730 40
2010-03-24 08:52:33 51°8.694 2°34.596 8.5 281 10.1 100730 40
2010-03-24 08:52:38 51°8.684 2°34.57 8.6 22 10.1 100730 40
2010-03-24 08:52:43 51°8.674 2°34.543 8.6 303 10.1 100730 40
2010-03-24 08:52:48 51°8.664 2°34.517 8.7 19 10.2 100740 40
2010-03-24 08:52:53 51°8.654 2°34.491 7.8 284 10.2 100740 40
2010-03-24 08:52:58 51°8.645 2°34.464 8.8 26 10.2 100730 40
2010-03-24 08:53:03 51°8.635 2°34.438 8.1 310 10.2 100730 40
2010-03-24 08:53:08 51°8.625 2°34.412 7.6 24 10.2 100730 39
2010-03-24 08:53:13 51°8.616 2°34.385 9 308 10.2 100730 39
2010-03-24 08:53:18 51°8.606 2°34.359 7.9 22 10.2 100730 40
2010-03-24 08:53:23 51°8.596 2°34.333 9.1 283 10.2 100730 40
2010-03-24 08:53:28 51°8.586 2°34.307 8.8 22 10.2 100730 40
2010-03-24 08:53:33 51°8.576 2°34.281 8.1 308 10.2 100730 40
2010-03-24 08:53:38 51°8.566 2°34.255 8.7 19 10.2 100730 39
2010-03-24 08:53:43 51°8.555 2°34.23 8.6 285 10.2 100730 39
2010-03-24 08:53:48 51°8.545 2°34.205 9 26 10.2 100740 41
2010-03-24 08:53:53 51°8.534 2°34.179 8.3 306 10.2 100740 41
2010-03-24 08:53:58 51°8.524 2°34.154 8.2 24 10.2 100730 40
2010-03-24 08:54:03 51°8.513 2°34.129 8.6 284 10.2 100730 40
2010-03-24 08:54:08 51°8.502 2°34.104 8.3 24 10.2 100730 39
2010-03-24 08:54:13 51°8.492 2°34.078 8 287 10.2 100730 39
2010-03-24 08:54:18 51°8.481 2°34.053 8.7 21 10.2 100730 40
2010-03-24 08:54:23 51°8.471 2°34.028 8 309 10.2 100730 40
2010-03-24 08:54:28 51°8.46 2°34.002 9.2 24 10.2 100730 40
2010-03-24 08:54:33 51°8.449 2°33.977 8.3 285 10.2 100730 40
2010-03-24 08:54:38 51°8.439 2°33.951 8.5 26 10.1 100730 39
2010-03-24 08:54:43 51°8.428 2°33.926 8.7 303 10.1 100730 39
2010-03-24 08:54:48 51°8.418 2°33.901 8.6 22 10.1 100730 40
2010-03-24 08:54:53 51°8.407 2°33.876 9 280 10.1 100730 40
2010-03-24 08:54:58 51°8.396 2°33.851 9.6 20 10.1 100730 40
2010-03-24 08:55:03 51°8.385 2°33.826 9.3 306 10.1 100730 40
2010-03-24 08:55:08 51°8.374 2°33.801 9.8 22 10.1 100740 40
2010-03-24 08:55:13 51°8.363 2°33.776 8.9 -999 10.1 100740 40
2010-03-24 08:55:18 51°8.351 2°33.752 8.9 24 10.1 100730 40
2010-03-24 08:55:23 51°8.34 2°33.728 10.1 280 10.1 100730 40
2010-03-24 08:55:28 51°8.327 2°33.705 8.6 26 10.1 100730 40
2010-03-24 08:55:33 51°8.315 2°33.682 10 307 10.1 100730 40
2010-03-24 08:55:38 51°8.302 2°33.66 8.8 22 10.1 100730 40
2010-03-24 08:55:43 51°8.289 2°33.638 9.2 307 10.1 100730 40
2010-03-24 08:55:48 51°8.275 2°33.617 9.6 22 10.1 100720 40
2010-03-24 08:55:53 51°8.261 2°33.596 9.3 304 10.1 100720 40
2010-03-24 08:55:58 51°8.247 2°33.576 9.8 24 10.1 100730 40
2010-03-24 08:56:03 51°8.233 2°33.555 8.9 281 10.1 100730 40
2010-03-24 08:56:08 51°8.219 2°33.535 10.2 24 10.1 100730 40
2010-03-24 08:56:13 51°8.205 2°33.515 8.8 310 10.1 100730 40
2010-03-24 08:56:18 51°8.191 2°33.495 9.6 18 10.1 100730 40
2010-03-24 08:56:23 51°8.176 2°33.475 9.4 303 10.1 100730 40
2010-03-24 08:56:28 51°8.162 2°33.455 9.2 20 10.1 100730 40
2010-03-24 08:56:33 51°8.148 2°33.436 9.7 304 10.1 100730 40
2010-03-24 08:56:38 51°8.134 2°33.416 9.7 24 10.1 100730 40
2010-03-24 08:56:43 51°8.119 2°33.396 9.2 304 10.1 100730 40
2010-03-24 08:56:48 51°8.105 2°33.376 9 28 10.1 100730 40
2010-03-24 08:56:53 51°8.091 2°33.356 9.8 282 10.1 100730 40
2010-03-24 08:56:58 51°8.077 2°33.336 9.7 24 10.1 100730 41
2010-03-24 08:57:03 51°8.062 2°33.316 9.9 305 10.1 100730 41
2010-03-24 08:57:08 51°8.048 2°33.296 10.2 25 10.1 100730 40
2010-03-24 08:57:13 51°8.034 2°33.276 9 -999 10.1 100730 40
2010-03-24 08:57:18 51°8.02 2°33.256 9.9 24 10.1 100730 39
2010-03-24 08:57:23 51°8.006 2°33.236 9.9 309 10.1 100730 39
2010-03-24 08:57:28 51°7.992 2°33.216 9.3 21 10.2 100730 39
2010-03-24 08:57:33 51°7.977 2°33.196 9.7 303 10.2 100730 39
2010-03-24 08:57:38 51°7.963 2°33.177 8.7 23 10.2 100720 40
2010-03-24 08:57:43 51°7.95 2°33.159 9.2 280 10.2 100720 40
2010-03-24 08:57:48 51°7.938 2°33.142 8.4 23 10.2 100730 39
2010-03-24 08:57:53 51°7.927 2°33.128 8.4 285 10.2 100730 39
2010-03-24 08:57:57 51°7.919 2°33.118 8.5 22 10.2 100730 40
2010-03-24 08:58:03 51°7.906 2°33.105 8.5 283 10.2 100730 40
2010-03-24 08:58:08 51°7.897 2°33.097 7.2 21 10.2 100730 39